Regional Weather Roundup
Issued by NWS

Home | Current Version | Previous Version | Graphics & Text | Print | Product List | Glossary On
Versions: 1 2 3 4 5 6 7 8 9 10 11 12 13 14 15 16 17 18 19 20 21 22 23 24 25 26 27 28 29 30 31 32 33 34 35 36 37 38 39 40 41 42 43 44 45 46 47 48 49
000
ASUS43 KDMX 241607
RWRIA

WEATHER ROUNDUP FOR IOWA
NATIONAL WEATHER SERVICE DES MOINES IA
1100 AM CDT FRI APR 24 2015

NOTE: "FAIR" INDICATES FEW OR NO CLOUDS BELOW 12,000 FEET WITH NO
SIGNIFICANT WEATHER AND/OR OBSTRUCTIONS TO VISIBILITY.

* - THESE STATIONS ARE NOT NWS STATIONS...THUS NOT UNDER NWS
QUALITY CONTROL.  THEY ALSO DO NOT REPORT WEATHER SUCH
AS PRECIPITATION OR FOG.

IAZ001>003-012>014-020>022-031>034-043>046-241700-
   NORTHWEST IOWA

CITY           SKY/WX    TMP DP  RH WIND       PRES   REMARKS
CARROLL *      CLOUDY    48  46  93 SE12      29.77F
CHEROKEE *     CLOUDY    54  43  66 S12       29.75S
DENISON *      CLOUDY    55  46  71 S12G17    29.73F
LE MARS *      LGT RAIN  50  46  87 SE16      29.70F
ORANGE CITY *  RAIN      50  45  81 S12       29.71F
SHELDON *      CLOUDY    54  41  62 S17G28    29.71F
SIOUX CITY     CLOUDY    62  47  57 S18       29.71F
SPENCER        LGT RAIN  48  41  76 SE23      29.77F
STORM LAKE *     N/A     50  45  81 S15G22    29.77R
$$

IAZ055>058-069>071-079>083-090>094-241700-
   SOUTHWEST IOWA

CITY           SKY/WX    TMP DP  RH WIND       PRES   REMARKS
ATLANTIC *     CLOUDY    59  45  58 S13G22    29.75F
AUDUBON *      PTSUNNY   55  48  76 SE9       29.76F
CLARINDA *     CLOUDY    59  43  55 S16G23    29.78F
CRESTON *      CLOUDY    55  43  62 S17G24    29.79F
HARLAN  *      CLOUDY    59  54  82 S16       29.77F
LAMONI         LGT RAIN  58  40  51 S10G21    29.80F
RED OAK *      CLOUDY    55  48  76 S17G29    29.77S HAZE
SHENANDOAH *   CLOUDY    59  48  67 S18       29.77F
$$

IAZ047>049-059>061-072>074-084-241700-
   CENTRAL IOWA

CITY           SKY/WX    TMP DP  RH WIND       PRES   REMARKS
AMES           LGT RAIN  51  35  54 S13       29.81F
ANKENY *       CLOUDY    54  41  62 SE12G23   29.80F
CHARITON *     CLOUDY    59  39  47 S12G22    29.82F
DES MOINES     CLOUDY    57  43  59 S16       29.81F
GRINNELL*      DRIZZLE   52  37  58 SE16G23   29.85F
KNOXVILLE *    CLOUDY    59  36  41 S12G20    29.82S
MARSHALLTOWN   LGT RAIN  48  38  68 E12       29.84F
PELLA *        PTSUNNY   57  41  54 SE14      29.84F
PERRY *        CLOUDY    48  45  87 N7        29.82R
$$

IAZ004>006-015-016-023>025-035-036-241700-
   NORTH CENTRAL IOWA

CITY           SKY/WX    TMP DP  RH WIND       PRES   REMARKS
ALGONA *       CLOUDY    46  37  71 SE17      29.82S
CLARION *      CLOUDY    45  39  81 SE17      29.84R HAZE
ESTHERVILLE    CLOUDY    47  41  80 SE22      29.78F
FORT DODGE *   CLOUDY    43  36  75 SE12      29.82S
MASON CITY     LGT RAIN  46  36  68 SE22G30   29.85F
FOREST CITY *  CLOUDY    45  34  65 SE17G25   29.84F
IOWA FALLS *   CLOUDY    46  36  66 E13G22    29.86S
$$

IAZ007>011-017>019-026>030-037>042-050>054-066-241700-
   NORTHEAST IOWA

CITY           SKY/WX    TMP DP  RH WIND       PRES   REMARKS
CEDAR RAPIDS   CLOUDY    53  24  32 SE16G23   29.91F
CHARLES CITY * MIX PCPN  43  37  81 SE20      29.89F
DECORAH *      CLOUDY    45  30  57 SE8       29.95R
MONTICELLO *   PTSUNNY   50  30  46 E9        29.96S
OELWEIN *      LGT RAIN  43  34  70 SE18      29.93F
WATERLOO       LGT RAIN  43  35  73 SE14      29.90F
$$

IAZ064-065-067-068-078-241700-
   EAST CENTRAL IOWA

CITY           SKY/WX    TMP DP  RH WIND       PRES   REMARKS
IOWA CITY      CLOUDY    54  25  32 SE14G21   29.94F
MT. PLEASANT * CLOUDY    59  30  33 SE17G23   29.92F
MUSCATINE *    CLOUDY    59  23  25 S18       29.94F
$$

IAZ062-063-075>077-085>089-095>099-241700-
   SOUTHEAST IOWA

CITY           SKY/WX    TMP DP  RH WIND       PRES   REMARKS
FAIRFIELD *    CLOUDY    59  34  38 SE16G26   29.88F
FORT MADISON * PTSUNNY   59  32  36 SE13G25   29.93F
KEOKUK *       CLOUDY    61  32  33 SE16G24   29.92F
OSKALOOSA *    CLOUDY    59  34  38 SE21      29.86F
CENTERVILLE *  PTSUNNY   59  39  47 S18G24    29.86S
OTTUMWA        CLOUDY    60  36  40 SE18G25   29.85F
WASHINGTON *   CLOUDY    57  28  33 SE22      29.91F
$$

ABBREVIATIONS USED IN REMARKS
   TC - TEMPERATURES IN CELSIUS
  WCI - WIND CHILL INDEX
   HX - HEAT INDEX
  VSB - VISIBILITY
$$



USA.gov is the U.S. government's official web portal to all federal, state and local government web resources and services.